| time (UTC) | temp C | wind direction | speed KPH | gust KPH | rain 1hr cm | rain 24hr cm | rain mn cm | humidity % | barometer mb |
| 20260831052507 | 19 | 111 | 6.4 | 20.9 | 0.00 | 0.00 | 0.00 | 75 | 1027.5 |
| 20260831051956 | 19 | 131 | 8.0 | 20.9 | 0.00 | 0.00 | 0.00 | 74 | 1027.5 |
| 20260831051459 | 20 | 107 | 8.0 | 22.5 | 0.00 | 0.00 | 0.00 | 74 | 1027.5 |
| 20260831050952 | 20 | 114 | 8.0 | 22.5 | 0.00 | 0.00 | 0.00 | 73 | 1027.6 |
| 20260831050712 | 20 | 112 | 6.4 | 20.9 | 0.00 | 0.00 | 0.00 | 73 | 1027.6 |
| 20260831050438 | 20 | 149 | 6.4 | 17.7 | 0.00 | 0.00 | 0.00 | 73 | 1027.6 |
| 20260831045453 | 20 | 112 | 6.4 | 16.1 | 0.00 | 0.00 | 0.00 | 73 | 1027.7 |
| 20260831044953 | 20 | 129 | 6.4 | 17.7 | 0.00 | 0.00 | 0.00 | 73 | 1027.7 |
| 20260831044451 | 20 | 103 | 6.4 | 20.9 | 0.00 | 0.00 | 0.00 | 72 | 1027.8 |
| 20260831043950 | 20 | 95 | 8.0 | 20.9 | 0.00 | 0.00 | 0.00 | 71 | 1027.7 |
| 20260831043451 | 20 | 89 | 8.0 | 22.5 | 0.00 | 0.00 | 0.00 | 70 | 1027.7 |
| 20260831042951 | 21 | 130 | 8.0 | 22.5 | 0.00 | 0.00 | 0.00 | 69 | 1027.7 |
| 20260831042724 | 21 | 114 | 8.0 | 20.9 | 0.00 | 0.00 | 0.00 | 69 | 1027.8 |
| 20260831041948 | 21 | 113 | 8.0 | 20.9 | 0.00 | 0.00 | 0.00 | 69 | 1027.8 |
| 20260831041451 | 21 | 97 | 9.7 | 20.9 | 0.00 | 0.00 | 0.00 | 68 | 1027.8 |
| 20260831041217 | 21 | 131 | 9.7 | 19.3 | 0.00 | 0.00 | 0.00 | 68 | 1027.8 |
| 20260831040710 | 21 | 148 | 6.4 | 17.7 | 0.00 | 0.00 | 0.00 | 68 | 1027.8 |
| 20260831040208 | 21 | 122 | 6.4 | 17.7 | 0.00 | 0.00 | 0.00 | 69 | 1027.9 |
| 20260831035451 | 21 | 136 | 6.4 | 17.7 | 0.00 | 0.00 | 0.00 | 70 | 1027.9 |
| 20260831034935 | 21 | 165 | 6.4 | 19.3 | 0.00 | 0.00 | 0.00 | 69 | 1027.9 |
| 20260831034435 | 21 | 114 | 8.0 | 19.3 | 0.00 | 0.00 | 0.00 | 69 | 1028.0 |
| 20260831034139 | 21 | 65 | 8.0 | 19.3 | 0.00 | 0.00 | 0.00 | 68 | 1028.0 |
| 20260831034022 | 21 | 110 | 8.0 | 19.3 | 0.00 | 0.00 | 0.00 | 69 | 1028.0 |
| 20260831032929 | 21 | 118 | 6.4 | 25.7 | 0.00 | 0.00 | 0.00 | 68 | 1028.0 |
| 20260831032427 | 21 | 110 | 8.0 | 25.7 | 0.00 | 0.00 | 0.00 | 69 | 1028.0 |
| 20260831031927 | 21 | 105 | 9.7 | 25.7 | 0.00 | 0.00 | 0.00 | 69 | 1028.0 |
| 20260831031427 | 21 | 85 | 9.7 | 25.7 | 0.00 | 0.00 | 0.00 | 69 | 1028.1 |
| 20260831030923 | 21 | 115 | 8.0 | 20.9 | 0.00 | 0.00 | 0.00 | 68 | 1028.2 |
| 20260831030423 | 21 | 107 | 6.4 | 19.3 | 0.00 | 0.00 | 0.00 | 68 | 1028.2 |
| 20260831025924 | 22 | 105 | 6.4 | 20.9 | 0.00 | 0.00 | 0.00 | 67 | 1028.3 |
| 20260831025645 | 22 | 106 | 6.4 | 20.9 | 0.00 | 0.00 | 0.00 | 66 | 1028.3 |
| 20260831024922 | 22 | 105 | 6.4 | 19.3 | 0.00 | 0.00 | 0.00 | 66 | 1028.3 |
| 20260831024420 | 22 | 31 | 9.7 | 24.1 | 0.00 | 0.00 | 0.00 | 68 | 1028.3 |
| 20260831023921 | 22 | 126 | 9.7 | 24.1 | 0.00 | 0.00 | 0.00 | 67 | 1028.4 |
| 20260831023643 | 22 | 122 | 9.7 | 24.1 | 0.00 | 0.00 | 0.00 | 66 | 1028.4 |
| 20260831023155 | 22 | 139 | 9.7 | 24.1 | 0.00 | 0.00 | 0.00 | 65 | 1028.4 |
| 20260831022419 | 22 | 119 | 8.0 | 20.9 | 0.00 | 0.00 | 0.00 | 61 | 1028.4 |
| 20260831021919 | 22 | 129 | 6.4 | 20.9 | 0.00 | 0.00 | 0.00 | 59 | 1028.4 |
| 20260831021416 | 22 | 108 | 6.4 | 17.7 | 0.00 | 0.00 | 0.00 | 60 | 1028.4 |
| 20260831020917 | 22 | 121 | 6.4 | 17.7 | 0.00 | 0.00 | 0.00 | 60 | 1028.4 |
| 20260831020657 | 22 | 129 | 6.4 | 17.7 | 0.00 | 0.00 | 0.00 | 59 | 1028.5 |
| 20260831020137 | 22 | 125 | 6.4 | 20.9 | 0.00 | 0.00 | 0.00 | 57 | 1028.5 |
| 20260831015412 | 23 | 122 | 6.4 | 22.5 | 0.00 | 0.00 | 0.00 | 57 | 1028.5 |
| 20260831015143 | 23 | 126 | 8.0 | 22.5 | 0.00 | 0.00 | 0.00 | 56 | 1028.6 |
| 20260831014407 | 23 | 139 | 6.4 | 20.9 | 0.00 | 0.00 | 0.00 | 57 | 1028.6 |
| 20260831013905 | 22 | 118 | 4.8 | 14.5 | 0.00 | 0.00 | 0.00 | 57 | 1028.6 |
| 20260831013622 | 22 | 114 | 4.8 | 14.5 | 0.00 | 0.00 | 0.00 | 58 | 1028.7 |
| 20260831012904 | 23 | 112 | 4.8 | 14.5 | 0.00 | 0.00 | 0.00 | 57 | 1028.7 |
| 20260831012344 | 23 | 206 | 4.8 | 16.1 | 0.00 | 0.00 | 0.00 | 57 | 1028.7 |
| 20260831011845 | 23 | 139 | 4.8 | 12.9 | 0.00 | 0.00 | 0.00 | 55 | 1028.8 |
| 20260831011329 | 23 | 124 | 4.8 | 16.1 | 0.00 | 0.00 | 0.00 | 54 | 1028.8 |
| 20260831010829 | 23 | 125 | 4.8 | 16.1 | 0.00 | 0.00 | 0.00 | 53 | 1028.9 |
| 20260831010312 | 24 | 122 | 4.8 | 16.1 | 0.00 | 0.00 | 0.00 | 53 | 1028.9 |
| 20260831005811 | 23 | 57 | 4.8 | 12.9 | 0.00 | 0.00 | 0.00 | 55 | 1028.9 |
| 20260831005310 | 23 | 112 | 4.8 | 14.5 | 0.00 | 0.00 | 0.00 | 55 | 1028.9 |
| 20260831004807 | 23 | 126 | 4.8 | 14.5 | 0.00 | 0.00 | 0.00 | 54 | 1029.0 |
| 20260831004306 | 23 | 136 | 3.2 | 11.3 | 0.00 | 0.00 | 0.00 | 56 | 1029.0 |
| 20260831003758 | 23 | 122 | 3.2 | 11.3 | 0.00 | 0.00 | 0.00 | 56 | 1029.0 |
| 20260831003258 | 23 | 161 | 3.2 | 8.0 | 0.00 | 0.00 | 0.00 | 58 | 1029.1 |
| 20260831002754 | 23 | 103 | 3.2 | 8.0 | 0.00 | 0.00 | 0.00 | 57 | 1029.2 |
| 20260831002252 | 23 | 201 | 3.2 | 17.7 | 0.00 | 0.00 | 0.00 | 57 | 1029.2 |
| 20260831001750 | 23 | 115 | 4.8 | 17.7 | 0.00 | 0.00 | 0.00 | 57 | 1029.3 |
| 20260831001251 | 23 | 104 | 3.2 | 16.1 | 0.00 | 0.00 | 0.00 | 59 | 1029.3 |
| 20260831000746 | 22 | 120 | 3.2 | 8.0 | 0.00 | 0.00 | 0.00 | 59 | 1029.3 |
| 20260831000249 | 22 | 104 | 3.2 | 9.7 | 0.00 | 0.00 | 0.00 | 59 | 1029.4 |
| 20260831000003 | 22 | 113 | 3.2 | 9.7 | 0.00 | 0.00 | 0.00 | 61 | 1029.5 |
| 20260830235238 | 22 | 124 | 3.2 | 9.7 | 0.00 | 0.00 | 0.00 | 61 | 1029.5 |
| 20260830234735 | 22 | 124 | 4.8 | 16.1 | 0.00 | 0.00 | 0.00 | 62 | 1029.6 |
| 20260830234238 | 21 | 167 | 6.4 | 16.1 | 0.00 | 0.00 | 0.00 | 62 | 1029.5 |
| 20260830233707 | 21 | 193 | 6.4 | 14.5 | 0.00 | 0.00 | 0.00 | 62 | 1029.6 |
| 20260830233426 | 21 | 165 | 6.4 | 16.1 | 0.00 | 0.00 | 0.00 | 63 | 1029.6 |
| 20260830232650 | 21 | 127 | 4.8 | 16.1 | 0.00 | 0.00 | 0.00 | 62 | 1029.7 |
| 20260830232127 | 21 | 106 | 4.8 | 9.7 | 0.00 | 0.00 | 0.00 | 64 | 1029.6 |
| 20260830231624 | 21 | 189 | 4.8 | 16.1 | 0.00 | 0.00 | 0.00 | 64 | 1029.6 |
| 20260830231137 | 20 | 144 | 4.8 | 16.1 | 0.00 | 0.00 | 0.00 | 66 | 1029.6 |
| 20260830230621 | 20 | 180 | 4.8 | 16.1 | 0.00 | 0.00 | 0.00 | 67 | 1029.6 |
| 20260830230124 | 20 | 221 | 4.8 | 12.9 | 0.00 | 0.00 | 0.00 | 69 | 1029.6 |
| 20260830225620 | 19 | 206 | 4.8 | 14.5 | 0.00 | 0.00 | 0.00 | 72 | 1029.6 |
| 20260830225340 | 19 | 175 | 3.2 | 14.5 | 0.00 | 0.00 | 0.00 | 73 | 1029.6 |
| 20260830224619 | 18 | 175 | 3.2 | 12.9 | 0.00 | 0.00 | 0.00 | 75 | 1029.6 |
| 20260830224124 | 18 | 222 | 3.2 | 11.3 | 0.00 | 0.00 | 0.00 | 77 | 1029.6 |
| 20260830223614 | 18 | 222 | 3.2 | 11.3 | 0.00 | 0.00 | 0.00 | 78 | 1029.7 |
| 20260830223116 | 17 | 214 | 3.2 | 9.7 | 0.00 | 0.00 | 0.00 | 79 | 1029.7 |
| 20260830222613 | 17 | 209 | 3.2 | 8.0 | 0.00 | 0.00 | 0.00 | 81 | 1029.7 |
| 20260830222111 | 16 | 248 | 1.6 | 8.0 | 0.00 | 0.00 | 0.00 | 82 | 1029.7 |
| 20260830222045 | 16 | 239 | 3.2 | 9.7 | 0.00 | 0.00 | 0.00 | 85 | 1029.5 |
| 20260830221709 | 16 | 185 | 3.2 | 6.4 | 0.00 | 0.00 | 0.00 | 83 | 1029.6 |
| 20260830220609 | 15 | 252 | 3.2 | 9.7 | 0.00 | 0.00 | 0.00 | 86 | 1029.5 |
| 20260830220111 | 15 | 254 | 3.2 | 6.4 | 0.00 | 0.00 | 0.00 | 87 | 1029.4 |
| 20260830215803 | 15 | 254 | 3.2 | 8.0 | 0.00 | 0.00 | 0.00 | 88 | 1029.4 |
| 20260830215019 | 14 | 254 | 3.2 | 9.7 | 0.00 | 0.00 | 0.00 | 88 | 1029.4 |
| 20260830214451 | 14 | 216 | 3.2 | 6.4 | 0.00 | 0.00 | 0.00 | 89 | 1029.4 |
| 20260830213928 | 13 | 216 | 3.2 | 4.8 | 0.00 | 0.00 | 0.00 | 89 | 1029.4 |
| 20260830213402 | 13 | 193 | 1.6 | 4.8 | 0.00 | 0.00 | 0.00 | 89 | 1029.4 |
| 20260830212832 | 13 | 227 | 1.6 | 4.8 | 0.00 | 0.00 | 0.00 | 89 | 1029.3 |
| 20260830212306 | 13 | 227 | 1.6 | 6.4 | 0.00 | 0.00 | 0.00 | 89 | 1029.3 |
| 20260830211740 | 13 | 235 | 1.6 | 6.4 | 0.00 | 0.00 | 0.00 | 89 | 1029.3 |
| 20260830211214 | 13 | 216 | 0.0 | 4.8 | 0.00 | 0.00 | 0.00 | 89 | 1029.3 |
| 20260830210702 | 13 | 216 | 0.0 | 4.8 | 0.00 | 0.00 | 0.00 | 89 | 1029.2 |
| 20260830210429 | 13 | 216 | 0.0 | 4.8 | 0.00 | 0.00 | 0.00 | 89 | 1029.3 |
| 20260830205632 | 12 | 216 | 0.0 | 4.8 | 0.00 | 0.00 | 0.00 | 89 | 1029.3 |
| 20260830205107 | 12 | 216 | 0.0 | 3.2 | 0.00 | 0.00 | 0.00 | 89 | 1029.2 |
| 20260830204539 | 12 | 216 | 0.0 | 3.2 | 0.00 | 0.00 | 0.00 | 89 | 1029.2 |
| 20260830204234 | 12 | 217 | 0.0 | 1.6 | 0.00 | 0.00 | 0.00 | 88 | 1029.1 |
| 20260830203444 | 12 | 217 | 0.0 | 3.2 | 0.00 | 0.00 | 0.00 | 88 | 1029.0 |
| 20260830202926 | 12 | 217 | 0.0 | 3.2 | 0.00 | 0.00 | 0.00 | 88 | 1028.9 |
| 20260830202428 | 12 | 217 | 0.0 | 4.8 | 0.00 | 0.00 | 0.00 | 88 | 1028.9 |
| 20260830202125 | 12 | 217 | 0.0 | 4.8 | 0.00 | 0.00 | 0.00 | 88 | 1028.8 |
| 20260830201337 | 12 | 217 | 0.0 | 3.2 | 0.00 | 0.00 | 0.00 | 88 | 1028.7 |
| 20260830200814 | 12 | 217 | 0.0 | 3.2 | 0.00 | 0.00 | 0.00 | 88 | 1028.6 |
| 20260830200249 | 12 | 217 | 0.0 | 3.2 | 0.00 | 0.00 | 0.00 | 87 | 1028.5 |
| 20260830195725 | 12 | 217 | 0.0 | 4.8 | 0.00 | 0.00 | 0.00 | 88 | 1028.4 |
| 20260830195158 | 12 | 217 | 1.6 | 4.8 | 0.00 | 0.00 | 0.00 | 88 | 1028.4 |
| 20260830194638 | 12 | 220 | 1.6 | 6.4 | 0.00 | 0.00 | 0.00 | 88 | 1028.4 |
| 20260830194140 | 12 | 220 | 0.0 | 6.4 | 0.00 | 0.00 | 0.00 | 88 | 1028.3 |
| 20260830193613 | 12 | 218 | 0.0 | 3.2 | 0.00 | 0.00 | 0.00 | 88 | 1028.3 |
| 20260830193049 | 12 | 218 | 0.0 | 4.8 | 0.00 | 0.00 | 0.00 | 88 | 1028.3 |
| 20260830192523 | 12 | 218 | 0.0 | 4.8 | 0.00 | 0.00 | 0.00 | 88 | 1028.3 |
| 20260830192218 | 12 | 218 | 1.6 | 6.4 | 0.00 | 0.00 | 0.00 | 88 | 1028.2 |
| 20260830191440 | 12 | 218 | 1.6 | 6.4 | 0.00 | 0.00 | 0.00 | 88 | 1028.2 |
| 20260830190954 | 12 | 164 | 1.6 | 4.8 | 0.00 | 0.00 | 0.00 | 88 | 1028.2 |
| 20260830190434 | 12 | 164 | 1.6 | 8.0 | 0.00 | 0.00 | 0.00 | 88 | 1028.2 |
| 20260830185934 | 12 | 164 | 1.6 | 8.0 | 0.00 | 0.00 | 0.00 | 88 | 1028.2 |
| 20260830185659 | 12 | 224 | 1.6 | 4.8 | 0.00 | 0.00 | 0.00 | 88 | 1028.2 |
| 20260830184932 | 12 | 242 | 1.6 | 6.4 | 0.00 | 0.00 | 0.00 | 88 | 1028.1 |
| 20260830184432 | 12 | 242 | 1.6 | 6.4 | 0.00 | 0.00 | 0.00 | 89 | 1028.1 |
| 20260830183930 | 12 | 229 | 1.6 | 4.8 | 0.00 | 0.00 | 0.00 | 88 | 1028.1 |
| 20260830183428 | 12 | 212 | 1.6 | 4.8 | 0.00 | 0.00 | 0.00 | 88 | 1028.1 |
| 20260830182928 | 12 | 212 | 1.6 | 3.2 | 0.00 | 0.00 | 0.00 | 88 | 1028.0 |
| 20260830182428 | 12 | 212 | 1.6 | 4.8 | 0.00 | 0.00 | 0.00 | 88 | 1028.1 |
| 20260830181927 | 12 | 212 | 1.6 | 4.8 | 0.00 | 0.00 | 0.00 | 88 | 1028.0 |
| 20260830181424 | 12 | 212 | 0.0 | 4.8 | 0.00 | 0.00 | 0.00 | 88 | 1028.0 |
| 20260830180924 | 12 | 212 | 1.6 | 4.8 | 0.00 | 0.00 | 0.00 | 88 | 1027.9 |
| 20260830180424 | 12 | 212 | 1.6 | 4.8 | 0.00 | 0.00 | 0.00 | 88 | 1028.0 |
| 20260830175923 | 12 | 212 | 1.6 | 4.8 | 0.00 | 0.00 | 0.00 | 87 | 1028.0 |
| 20260830175424 | 12 | 216 | 1.6 | 4.8 | 0.00 | 0.00 | 0.00 | 87 | 1028.0 |
| 20260830174926 | 12 | 216 | 1.6 | 4.8 | 0.00 | 0.00 | 0.00 | 87 | 1028.0 |
| 20260830174359 | 12 | 216 | 1.6 | 4.8 | 0.00 | 0.00 | 0.00 | 87 | 1027.9 |
| 20260830173900 | 12 | 216 | 1.6 | 4.8 | 0.00 | 0.00 | 0.00 | 87 | 1027.9 |
| 20260830173358 | 12 | 200 | 1.6 | 4.8 | 0.00 | 0.00 | 0.00 | 87 | 1027.9 |
| 20260830172858 | 12 | 200 | 1.6 | 4.8 | 0.00 | 0.00 | 0.00 | 86 | 1028.0 |
| 20260830172358 | 12 | 200 | 1.6 | 4.8 | 0.00 | 0.00 | 0.00 | 86 | 1028.0 |
| 20260830171856 | 12 | 200 | 0.0 | 4.8 | 0.00 | 0.00 | 0.00 | 87 | 1028.0 |
| 20260830171354 | 12 | 199 | 0.0 | 4.8 | 0.00 | 0.00 | 0.00 | 86 | 1028.0 |
| 20260830170854 | 12 | 199 | 1.6 | 4.8 | 0.00 | 0.00 | 0.00 | 86 | 1028.0 |
| 20260830170350 | 12 | 199 | 1.6 | 3.2 | 0.00 | 0.00 | 0.00 | 86 | 1028.1 |
| 20260830165849 | 12 | 199 | 1.6 | 3.2 | 0.00 | 0.00 | 0.00 | 86 | 1028.0 |
| 20260830165350 | 12 | 199 | 1.6 | 4.8 | 0.00 | 0.00 | 0.00 | 86 | 1028.0 |
| 20260830164850 | 12 | 199 | 1.6 | 6.4 | 0.00 | 0.00 | 0.00 | 86 | 1028.0 |
| 20260830164841 | 12 | 198 | 1.6 | 6.4 | 0.00 | 0.00 | 0.00 | 86 | 1028.1 |
| 20260830163848 | 12 | 197 | 1.6 | 6.4 | 0.00 | 0.00 | 0.00 | 86 | 1028.2 |
| 20260830163350 | 12 | 197 | 1.6 | 6.4 | 0.00 | 0.00 | 0.00 | 86 | 1028.2 |
| 20260830162839 | 12 | 199 | 1.6 | 6.4 | 0.00 | 0.00 | 0.00 | 86 | 1028.2 |
| 20260830162324 | 12 | 199 | 3.2 | 6.4 | 0.00 | 0.00 | 0.00 | 86 | 1028.2 |
| 20260830161823 | 12 | 165 | 1.6 | 6.4 | 0.00 | 0.00 | 0.00 | 86 | 1028.3 |
| 20260830161322 | 12 | 165 | 1.6 | 6.4 | 0.00 | 0.00 | 0.00 | 86 | 1028.4 |
| 20260830160819 | 12 | 229 | 1.6 | 4.8 | 0.00 | 0.00 | 0.00 | 85 | 1028.4 |
| 20260830160317 | 13 | 229 | 1.6 | 4.8 | 0.00 | 0.00 | 0.00 | 85 | 1028.4 |
| 20260830155816 | 13 | 238 | 1.6 | 3.2 | 0.00 | 0.00 | 0.00 | 86 | 1028.4 |
| 20260830155317 | 13 | 238 | 1.6 | 4.8 | 0.00 | 0.00 | 0.00 | 86 | 1028.5 |
| 20260830154814 | 13 | 238 | 1.6 | 4.8 | 0.00 | 0.00 | 0.00 | 86 | 1028.5 |
| 20260830154312 | 13 | 243 | 1.6 | 8.0 | 0.00 | 0.00 | 0.00 | 86 | 1028.6 |
| 20260830153811 | 13 | 241 | 1.6 | 8.0 | 0.00 | 0.00 | 0.00 | 86 | 1028.5 |
| 20260830153312 | 13 | 214 | 1.6 | 6.4 | 0.00 | 0.00 | 0.00 | 86 | 1028.6 |
| 20260830153028 | 13 | 214 | 1.6 | 6.4 | 0.00 | 0.00 | 0.00 | 86 | 1028.6 |
| 20260830152307 | 13 | 215 | 1.6 | 6.4 | 0.00 | 0.00 | 0.00 | 86 | 1028.6 |
| 20260830151810 | 13 | 202 | 1.6 | 6.4 | 0.00 | 0.00 | 0.00 | 85 | 1028.7 |
| 20260830151241 | 13 | 204 | 1.6 | 6.4 | 0.00 | 0.00 | 0.00 | 86 | 1028.7 |
| 20260830150722 | 13 | 200 | 0.0 | 3.2 | 0.00 | 0.00 | 0.00 | 86 | 1028.8 |
| 20260830150223 | 13 | 200 | 1.6 | 3.2 | 0.00 | 0.00 | 0.00 | 86 | 1028.8 |
| 20260830145716 | 13 | 200 | 1.6 | 3.2 | 0.00 | 0.00 | 0.00 | 85 | 1028.8 |
| 20260830145213 | 13 | 200 | 0.0 | 3.2 | 0.00 | 0.00 | 0.00 | 85 | 1028.9 |
| 20260830144712 | 13 | 200 | 0.0 | 3.2 | 0.00 | 0.00 | 0.00 | 85 | 1028.9 |
| 20260830144210 | 13 | 200 | 0.0 | 1.6 | 0.00 | 0.00 | 0.00 | 85 | 1029.0 |
| 20260830143710 | 13 | 200 | 0.0 | 4.8 | 0.00 | 0.00 | 0.00 | 85 | 1029.0 |
| 20260830143218 | 13 | 200 | 0.0 | 4.8 | 0.00 | 0.00 | 0.00 | 85 | 1029.0 |
| 20260830142704 | 13 | 199 | 1.6 | 3.2 | 0.00 | 0.00 | 0.00 | 84 | 1028.9 |
| 20260830142203 | 13 | 199 | 0.0 | 3.2 | 0.00 | 0.00 | 0.00 | 84 | 1028.9 |
| 20260830141656 | 14 | 200 | 0.0 | 1.6 | 0.00 | 0.00 | 0.00 | 84 | 1029.0 |
| 20260830141153 | 14 | 199 | 0.0 | 1.6 | 0.00 | 0.00 | 0.00 | 83 | 1029.0 |
| 20260830140652 | 14 | 199 | 0.0 | 1.6 | 0.00 | 0.00 | 0.00 | 83 | 1029.1 |
| 20260830140154 | 14 | 199 | 0.0 | 1.6 | 0.00 | 0.00 | 0.00 | 84 | 1029.0 |
| 20260830135625 | 14 | 199 | 0.0 | 1.6 | 0.00 | 0.00 | 0.00 | 84 | 1029.0 |
| 20260830135106 | 14 | 199 | 0.0 | 3.2 | 0.00 | 0.00 | 0.00 | 84 | 1029.1 |
| 20260830134607 | 14 | 199 | 0.0 | 3.2 | 0.00 | 0.00 | 0.00 | 84 | 1029.1 |
| 20260830134103 | 14 | 199 | 0.0 | 3.2 | 0.00 | 0.00 | 0.00 | 83 | 1029.0 |
| 20260830133604 | 15 | 199 | 0.0 | 3.2 | 0.00 | 0.00 | 0.00 | 83 | 1029.0 |
| 20260830133105 | 15 | 199 | 0.0 | 3.2 | 0.00 | 0.00 | 0.00 | 83 | 1028.9 |
| 20260830132603 | 15 | 199 | 0.0 | 4.8 | 0.00 | 0.00 | 0.00 | 83 | 1028.9 |
| 20260830132104 | 15 | 200 | 0.0 | 4.8 | 0.00 | 0.00 | 0.00 | 83 | 1028.8 |
| 20260830131605 | 15 | 180 | 0.0 | 1.6 | 0.00 | 0.00 | 0.00 | 83 | 1028.8 |
| 20260830131327 | 15 | 180 | 0.0 | 1.6 | 0.00 | 0.00 | 0.00 | 82 | 1028.8 |
| 20260830130600 | 15 | 180 | 0.0 | 3.2 | 0.00 | 0.00 | 0.00 | 82 | 1028.8 |
| 20260830130112 | 15 | 180 | 0.0 | 3.2 | 0.00 | 0.00 | 0.00 | 82 | 1028.9 |
| 20260830125554 | 15 | 180 | 0.0 | 4.8 | 0.00 | 0.00 | 0.00 | 82 | 1029.0 |
| 20260830125052 | 15 | 180 | 0.0 | 4.8 | 0.00 | 0.00 | 0.00 | 82 | 1028.9 |
| 20260830124550 | 15 | 180 | 1.6 | 4.8 | 0.00 | 0.00 | 0.00 | 82 | 1028.9 |
| 20260830124052 | 15 | 180 | 1.6 | 4.8 | 0.00 | 0.00 | 0.00 | 82 | 1028.9 |
| 20260830123523 | 15 | 180 | 0.0 | 4.8 | 0.00 | 0.00 | 0.00 | 81 | 1028.9 |
| 20260830123004 | 15 | 180 | 0.0 | 4.8 | 0.00 | 0.00 | 0.00 | 81 | 1028.9 |
| 20260830122505 | 15 | 180 | 1.6 | 4.8 | 0.00 | 0.00 | 0.00 | 82 | 1029.0 |
| 20260830121957 | 15 | 180 | 1.6 | 4.8 | 0.00 | 0.00 | 0.00 | 81 | 1029.0 |
| 20260830121457 | 15 | 180 | 1.6 | 4.8 | 0.00 | 0.00 | 0.00 | 81 | 1029.0 |
| 20260830120954 | 15 | 180 | 1.6 | 4.8 | 0.00 | 0.00 | 0.00 | 81 | 1029.0 |
| 20260830120453 | 15 | 180 | 1.6 | 6.4 | 0.00 | 0.00 | 0.00 | 81 | 1029.0 |
| 20260830115950 | 16 | 180 | 3.2 | 8.0 | 0.00 | 0.00 | 0.00 | 81 | 1028.9 |
| 20260830115450 | 16 | 191 | 1.6 | 8.0 | 0.00 | 0.00 | 0.00 | 81 | 1029.0 |
| 20260830114950 | 16 | 138 | 1.6 | 9.7 | 0.00 | 0.00 | 0.00 | 81 | 1028.9 |
| 20260830114448 | 16 | 136 | 3.2 | 9.7 | 0.00 | 0.00 | 0.00 | 81 | 1028.9 |
| 20260830113947 | 16 | 120 | 3.2 | 8.0 | 0.00 | 0.00 | 0.00 | 81 | 1028.8 |
| 20260830113443 | 16 | 116 | 1.6 | 6.4 | 0.00 | 0.00 | 0.00 | 81 | 1028.9 |
| 20260830113205 | 16 | 114 | 1.6 | 8.0 | 0.00 | 0.00 | 0.00 | 81 | 1028.8 |
| 20260830112436 | 16 | 162 | 3.2 | 8.0 | 0.00 | 0.00 | 0.00 | 81 | 1028.9 |
| 20260830112413 | 16 | 155 | 3.2 | 9.7 | 0.00 | 0.00 | 0.00 | 81 | 1028.9 |
| 20260830111659 | 16 | 233 | 3.2 | 9.7 | 0.00 | 0.00 | 0.00 | 81 | 1028.9 |
| 20260830110934 | 16 | 138 | 3.2 | 8.0 | 0.00 | 0.00 | 0.00 | 80 | 1028.8 |
| 20260830110635 | 16 | 159 | 3.2 | 6.4 | 0.00 | 0.00 | 0.00 | 80 | 1028.8 |
| 20260830105916 | 16 | 146 | 3.2 | 8.0 | 0.00 | 0.00 | 0.00 | 80 | 1028.7 |
| 20260830105634 | 16 | 148 | 3.2 | 8.0 | 0.00 | 0.00 | 0.00 | 80 | 1028.7 |
| 20260830104912 | 16 | 131 | 3.2 | 8.0 | 0.00 | 0.00 | 0.00 | 80 | 1028.7 |
| 20260830104410 | 16 | 124 | 3.2 | 8.0 | 0.00 | 0.00 | 0.00 | 80 | 1028.6 |
| 20260830104121 | 17 | 129 | 3.2 | 8.0 | 0.00 | 0.00 | 0.00 | 80 | 1028.6 |
| 20260830103626 | 17 | 110 | 3.2 | 11.3 | 0.00 | 0.00 | 0.00 | 80 | 1028.6 |
| 20260830102900 | 17 | 112 | 3.2 | 11.3 | 0.00 | 0.00 | 0.00 | 79 | 1028.6 |
| 20260830102358 | 17 | 110 | 3.2 | 11.3 | 0.00 | 0.00 | 0.00 | 79 | 1028.6 |
| 20260830101858 | 17 | 95 | 3.2 | 8.0 | 0.00 | 0.00 | 0.00 | 78 | 1028.6 |
| 20260830101358 | 17 | 124 | 3.2 | 8.0 | 0.00 | 0.00 | 0.00 | 78 | 1028.6 |
| 20260830100855 | 17 | 123 | 3.2 | 11.3 | 0.00 | 0.00 | 0.00 | 77 | 1028.5 |
| 20260830100355 | 17 | 110 | 3.2 | 11.3 | 0.00 | 0.00 | 0.00 | 77 | 1028.4 |
| 20260830100121 | 17 | 116 | 3.2 | 6.4 | 0.00 | 0.00 | 0.00 | 76 | 1028.4 |
| 20260830095347 | 17 | 113 | 3.2 | 6.4 | 0.00 | 0.00 | 0.00 | 76 | 1028.3 |
| 20260830094846 | 17 | 121 | 3.2 | 8.0 | 0.00 | 0.00 | 0.00 | 75 | 1028.3 |
| 20260830094344 | 17 | 113 | 3.2 | 12.9 | 0.00 | 0.00 | 0.00 | 75 | 1028.3 |
| 20260830094108 | 17 | 113 | 3.2 | 12.9 | 0.00 | 0.00 | 0.00 | 74 | 1028.2 |
| 20260830093330 | 17 | 117 | 3.2 | 12.9 | 0.00 | 0.00 | 0.00 | 74 | 1028.2 |
| 20260830092830 | 17 | 112 | 4.8 | 12.9 | 0.00 | 0.00 | 0.00 | 74 | 1028.1 |
| 20260830092322 | 17 | 118 | 4.8 | 14.5 | 0.00 | 0.00 | 0.00 | 73 | 1028.1 |
| 20260830091820 | 17 | 175 | 4.8 | 14.5 | 0.00 | 0.00 | 0.00 | 73 | 1028.0 |
| 20260830091317 | 17 | 126 | 6.4 | 14.5 | 0.00 | 0.00 | 0.00 | 73 | 1027.9 |
| 20260830090818 | 17 | 99 | 4.8 | 14.5 | 0.00 | 0.00 | 0.00 | 73 | 1027.9 |
| 20260830090315 | 17 | 142 | 4.8 | 16.1 | 0.00 | 0.00 | 0.00 | 73 | 1027.9 |
| 20260830085815 | 18 | 120 | 4.8 | 16.1 | 0.00 | 0.00 | 0.00 | 72 | 1027.8 |
| 20260830085538 | 18 | 175 | 6.4 | 17.7 | 0.00 | 0.00 | 0.00 | 72 | 1027.7 |
| 20260830084814 | 18 | 134 | 6.4 | 17.7 | 0.00 | 0.00 | 0.00 | 72 | 1027.6 |
| 20260830084310 | 18 | 129 | 6.4 | 20.9 | 0.00 | 0.00 | 0.00 | 72 | 1027.6 |
| 20260830084028 | 18 | 108 | 6.4 | 20.9 | 0.00 | 0.00 | 0.00 | 72 | 1027.6 |
| 20260830083528 | 18 | 119 | 6.4 | 16.1 | 0.00 | 0.00 | 0.00 | 71 | 1027.5 |
| 20260830082820 | 18 | 66 | 6.4 | 16.1 | 0.00 | 0.00 | 0.00 | 71 | 1027.5 |
| 20260830082240 | 18 | 112 | 6.4 | 19.3 | 0.00 | 0.00 | 0.00 | 71 | 1027.5 |
| 20260830081715 | 18 | 112 | 6.4 | 16.1 | 0.00 | 0.00 | 0.00 | 70 | 1027.4 |
| 20260830081644 | 18 | 139 | 6.4 | 16.1 | 0.00 | 0.00 | 0.00 | 70 | 1027.4 |
| 20260830080704 | 18 | 125 | 6.4 | 16.1 | 0.00 | 0.00 | 0.00 | 70 | 1027.3 |
| 20260830080420 | 18 | 122 | 6.4 | 16.1 | 0.00 | 0.00 | 0.00 | 70 | 1027.2 |
| 20260830075705 | 18 | 131 | 6.4 | 16.1 | 0.00 | 0.00 | 0.00 | 69 | 1027.2 |
| 20260830075159 | 18 | 141 | 6.4 | 19.3 | 0.00 | 0.00 | 0.00 | 69 | 1027.1 |
| 20260830074929 | 18 | 136 | 8.0 | 19.3 | 0.00 | 0.00 | 0.00 | 68 | 1027.0 |
| 20260830074200 | 18 | 112 | 8.0 | 19.3 | 0.00 | 0.00 | 0.00 | 68 | 1026.9 |
| 20260830073704 | 18 | 119 | 4.8 | 17.7 | 0.00 | 0.00 | 0.00 | 68 | 1026.9 |
| 20260830073200 | 18 | 124 | 4.8 | 17.7 | 0.00 | 0.00 | 0.00 | 67 | 1026.8 |
| 20260830072702 | 18 | 115 | 6.4 | 17.7 | 0.00 | 0.00 | 0.00 | 66 | 1026.8 |
| 20260830072158 | 19 | 122 | 8.0 | 24.1 | 0.00 | 0.00 | 0.00 | 66 | 1026.8 |
| 20260830071658 | 19 | 120 | 8.0 | 24.1 | 0.00 | 0.00 | 0.00 | 65 | 1026.8 |
| 20260830071419 | 19 | 162 | 8.0 | 24.1 | 0.00 | 0.00 | 0.00 | 65 | 1026.7 |
| 20260830071140 | 19 | 114 | 11.3 | 27.4 | 0.00 | 0.00 | 0.00 | 65 | 1026.7 |
| 20260830070132 | 19 | 110 | 9.7 | 25.7 | 0.00 | 0.00 | 0.00 | 64 | 1026.6 |
| 20260830065608 | 19 | 110 | 6.4 | 19.3 | 0.00 | 0.00 | 0.00 | 64 | 1026.6 |
| 20260830065038 | 20 | 126 | 6.4 | 19.3 | 0.00 | 0.00 | 0.00 | 64 | 1026.6 |
| 20260830064747 | 20 | 122 | 8.0 | 17.7 | 0.00 | 0.00 | 0.00 | 64 | 1026.6 |
| 20260830064023 | 20 | 140 | 8.0 | 17.7 | 0.00 | 0.00 | 0.00 | 63 | 1026.5 |
| 20260830063718 | 20 | 118 | 6.4 | 17.7 | 0.00 | 0.00 | 0.00 | 64 | 1026.5 |
| 20260830063421 | 20 | 97 | 6.4 | 19.3 | 0.00 | 0.00 | 0.00 | 64 | 1026.4 |
| 20260830062403 | 20 | 119 | 9.7 | 19.3 | 0.00 | 0.00 | 0.00 | 65 | 1026.4 |
| 20260830062112 | 20 | 131 | 12.9 | 27.4 | 0.00 | 0.00 | 0.00 | 65 | 1026.5 |
| 20260830061348 | 20 | 106 | 11.3 | 25.7 | 0.00 | 0.00 | 0.00 | 65 | 1026.3 |
| 20260830060824 | 20 | 149 | 8.0 | 20.9 | 0.00 | 0.00 | 0.00 | 65 | 1026.4 |
| 20260830060255 | 21 | 139 | 8.0 | 22.5 | 0.00 | 0.00 | 0.00 | 65 | 1026.4 |
| 20260830055730 | 21 | 109 | 8.0 | 24.1 | 0.00 | 0.00 | 0.00 | 65 | 1026.4 |
| 20260830055201 | 21 | 120 | 9.7 | 22.5 | 0.00 | 0.00 | 0.00 | 65 | 1026.3 |
| 20260830054635 | 21 | 126 | 12.9 | 25.7 | 0.00 | 0.00 | 0.00 | 64 | 1026.3 |
| 20260830054106 | 21 | 72 | 12.9 | 29.0 | 0.00 | 0.00 | 0.00 | 63 | 1026.3 |
| 20260830053539 | 21 | 115 | 11.3 | 29.0 | 0.00 | 0.00 | 0.00 | 62 | 1026.3 |
| 20260830053232 | 21 | 123 | 11.3 | 29.0 | 0.00 | 0.00 | 0.00 | 60 | 1026.3 |